TimeCDT,TemperatureF,Dew PointF,Humidity,Sea Level PressureIn,VisibilityMPH,Wind Direction,Wind SpeedMPH,Gust SpeedMPH,PrecipitationIn,Events,Conditions,WindDirDegrees,DateUTC
12:58 AM,68.9,54.9,61,30.22,10.0,South,6.9,-,N/A,,Clear,190,2013-05-14 05:58:00
1:58 AM,64.2,56.7,76,30.20,10.0,SSE,3.5,-,N/A,,Clear,160,2013-05-14 06:58:00
2:58 AM,62.4,58.3,86,30.19,10.0,SE,2.3,-,N/A,,Clear,140,2013-05-14 07:58:00
3:58 AM,62.1,58.6,89,30.17,10.0,East,3.5,-,N/A,,Clear,80,2013-05-14 08:58:00
4:58 AM,60.4,58.6,94,30.17,10.0,ENE,3.5,-,N/A,,Clear,60,2013-05-14 09:58:00
5:58 AM,59.7,58.3,95,30.17,10.0,NNW,2.3,-,N/A,,Scattered Clouds,340,2013-05-14 10:58:00
6:07 AM,59.0,59.0,100,30.18,10.0,NNW,2.3,-,N/A,,Mostly Cloudy,340,2013-05-14 11:07:00
6:16 AM,59.0,59.0,100,30.18,10.0,Calm,Calm,-,N/A,,Scattered Clouds,360,2013-05-14 11:16:00
6:58 AM,57.9,57.6,99,30.17,9.0,NE,2.3,-,N/A,,Clear,50,2013-05-14 11:58:00
7:43 AM,60.8,60.8,100,30.19,10.0,NNW,3.5,-,N/A,,Mostly Cloudy,340,2013-05-14 12:43:00
7:57 AM,62.6,60.8,94,30.18,10.0,Calm,Calm,-,N/A,,Overcast,0,2013-05-14 12:57:00
8:14 AM,64.4,62.6,94,30.20,10.0,Calm,Calm,-,N/A,,Overcast,0,2013-05-14 13:14:00
8:58 AM,67.3,65.5,94,30.21,10.0,SSW,6.9,-,N/A,,Overcast,200,2013-05-14 13:58:00
9:25 AM,69.8,66.2,88,30.23,10.0,South,8.1,-,N/A,,Overcast,190,2013-05-14 14:25:00
9:34 AM,69.8,66.2,88,30.23,10.0,Variable,6.9,-,N/A,,Mostly Cloudy,0,2013-05-14 14:34:00
9:43 AM,69.8,66.2,88,30.23,10.0,South,5.8,-,N/A,,Mostly Cloudy,190,2013-05-14 14:43:00
9:52 AM,71.6,66.2,83,30.23,10.0,South,6.9,-,N/A,,Mostly Cloudy,180,2013-05-14 14:52:00
9:58 AM,71.6,66.2,83,30.22,10.0,South,6.9,-,N/A,,Scattered Clouds,190,2013-05-14 14:58:00
10:58 AM,74.3,65.1,73,30.19,10.0,SSW,8.1,-,N/A,,Scattered Clouds,200,2013-05-14 15:58:00
11:58 AM,78.1,64.4,63,30.18,10.0,South,8.1,-,N/A,,Partly Cloudy,190,2013-05-14 16:58:00
12:58 PM,80.6,62.2,53,30.16,10.0,South,10.4,20.7,N/A,,Clear,170,2013-05-14 17:58:00
1:58 PM,81.7,63.7,54,30.13,10.0,South,15.0,18.4,N/A,,Scattered Clouds,170,2013-05-14 18:58:00
2:58 PM,84.0,63.9,51,30.12,10.0,SSE,10.4,23.0,N/A,,Partly Cloudy,150,2013-05-14 19:58:00
3:58 PM,83.1,63.0,50,30.09,10.0,South,13.8,19.6,N/A,,Scattered Clouds,170,2013-05-14 20:58:00
4:58 PM,84.2,62.8,48,30.05,10.0,South,11.5,19.6,N/A,,Partly Cloudy,190,2013-05-14 21:58:00
5:58 PM,84.6,64.0,50,30.04,10.0,SSE,12.7,-,N/A,,Partly Cloudy,160,2013-05-14 22:58:00
6:58 PM,82.8,66.0,57,30.01,10.0,SE,17.3,21.9,N/A,,Partly Cloudy,140,2013-05-14 23:58:00
7:58 PM,79.0,66.0,64,30.02,10.0,SE,12.7,-,N/A,,Partly Cloudy,140,2013-05-15 00:58:00
8:58 PM,76.5,66.7,72,30.02,10.0,SSE,13.8,-,N/A,,Scattered Clouds,150,2013-05-15 01:58:00
9:52 PM,75.2,66.2,73,30.08,10.0,SSE,16.1,-,N/A,,Mostly Cloudy,160,2013-05-15 02:52:00
9:58 PM,74.8,67.1,77,30.06,10.0,SSE,13.8,-,N/A,,Mostly Cloudy,160,2013-05-15 02:58:00
10:07 PM,75.2,68.0,78,30.09,10.0,SSE,12.7,-,N/A,,Overcast,160,2013-05-15 03:07:00
10:16 PM,75.2,68.0,78,30.09,10.0,SSE,16.1,-,N/A,,Overcast,160,2013-05-15 03:16:00
10:34 PM,73.4,68.0,83,30.09,10.0,SSE,13.8,-,N/A,,Scattered Clouds,150,2013-05-15 03:34:00
10:58 PM,72.3,68.5,88,30.08,10.0,SSE,12.7,-,N/A,,Partly Cloudy,160,2013-05-15 03:58:00
11:16 PM,71.6,69.8,94,30.11,10.0,South,10.4,-,N/A,,Mostly Cloudy,170,2013-05-15 04:16:00
11:43 PM,73.4,68.0,83,30.11,10.0,South,12.7,-,N/A,,Mostly Cloudy,170,2013-05-15 04:43:00
11:52 PM,73.4,68.0,83,30.11,10.0,South,15.0,-,N/A,,Mostly Cloudy,170,2013-05-15 04:52:00
11:58 PM,72.7,68.5,87,30.09,10.0,South,13.8,-,N/A,,Mostly Cloudy,170,2013-05-15 04:58:00